sat.trackr.live / text

‹ back to catalog

STARLINK-3875

NORAD 52483 · 2022-049AJ

PAYLOAD ACTIVE UNKNOWN

§ Identity

Operator
Country
US
Launch date
2022-05-06
Launch site
AFETR
Launch vehicle
Mass (kg)
RCS (m²)

Purposes: comms

External: N2YO · Heavens-Above · Gunter

§ Orbital elements

Epoch: 2026-05-25T03:48:13.607712Z

Period
95.44 min
Inclination
53.2127°
Eccentricity
0.0001436
Mean motion
15.08841073 rev/d
Perigee alt
538.7 km
Apogee alt
540.7 km
Semi-major
6,917.9 km
B*
2.6944e-5
RAAN
65.8372°
Arg perigee
66.4272°
Mean anomaly
293.6871°
Rev number
22,517

§ Raw data

STARLINK-38751 52483U 22049AJ  26145.15849083  .00000141  00000+0  26944-4 0  99992 52483  53.2127  65.8372 0001436  66.4272 293.6871 15.08841073225176

JSON: /api/v1/satellites/52483 · /tle

For live sub-satellite position, see the globe view (requires WebGL).

§ Visibility from observer

Set your observer location to see the next 7 days of passes ≥ 10°. The values pass through the URL so the page stays shareable.

No JS? Fill the form by hand. The geolocation button needs JavaScript.